TimeEST,TemperatureF,Dew PointF,Humidity,Sea Level PressureIn,VisibilityMPH,Wind Direction,Wind SpeedMPH,Gust SpeedMPH,PrecipitationIn,Events,Conditions,WindDirDegrees,DateUTC
12:15 AM,60.8,54.9,81,30.12,10.0,South,4.6,-,N/A,,Scattered Clouds,190,2012-12-05 05:15:00
12:35 AM,60.8,54.9,81,30.11,10.0,SSW,6.9,-,N/A,,Mostly Cloudy,200,2012-12-05 05:35:00
12:55 AM,60.8,55.0,81,30.11,10.0,SSW,5.8,-,N/A,,Overcast,210,2012-12-05 05:55:00
1:15 AM,60.8,55.0,81,30.11,10.0,SSW,6.9,-,N/A,,Overcast,210,2012-12-05 06:15:00
1:35 AM,61.0,55.4,82,30.10,10.0,SSW,5.8,-,N/A,,Overcast,210,2012-12-05 06:35:00
1:55 AM,60.8,55.0,81,30.10,10.0,SW,5.8,-,N/A,,Overcast,220,2012-12-05 06:55:00
2:15 AM,60.4,54.9,82,30.10,10.0,SSW,4.6,-,N/A,,Overcast,210,2012-12-05 07:15:00
2:55 AM,60.3,54.7,82,30.08,10.0,SSW,5.8,-,N/A,,Overcast,200,2012-12-05 07:55:00
3:15 AM,60.4,54.7,81,30.08,10.0,SSW,6.9,-,N/A,,Overcast,210,2012-12-05 08:15:00
3:35 AM,60.3,54.7,82,30.08,10.0,SW,8.1,-,N/A,,Overcast,220,2012-12-05 08:35:00
3:55 AM,59.7,54.5,83,30.07,10.0,SW,4.6,-,N/A,,Scattered Clouds,230,2012-12-05 08:55:00
4:15 AM,59.0,54.3,84,30.06,10.0,SW,3.5,-,N/A,,Clear,220,2012-12-05 09:15:00
4:35 AM,59.0,54.5,85,30.06,10.0,SW,4.6,-,N/A,,Clear,220,2012-12-05 09:35:00
4:55 AM,59.7,54.9,84,30.06,10.0,SW,5.8,-,N/A,,Mostly Cloudy,230,2012-12-05 09:55:00
5:15 AM,59.9,54.9,83,30.06,10.0,SW,6.9,-,N/A,,Overcast,230,2012-12-05 10:15:00
5:35 AM,59.2,54.7,85,30.06,10.0,SW,8.1,-,N/A,,Scattered Clouds,230,2012-12-05 10:35:00
5:55 AM,58.6,54.7,87,30.06,10.0,SW,5.8,-,N/A,,Scattered Clouds,220,2012-12-05 10:55:00
6:15 AM,58.3,54.7,88,30.07,10.0,SW,4.6,-,N/A,,Clear,220,2012-12-05 11:15:00
6:35 AM,57.4,54.3,90,30.08,10.0,Calm,Calm,-,N/A,,Clear,0,2012-12-05 11:35:00
6:55 AM,56.7,54.5,92,30.09,10.0,Calm,Calm,-,N/A,,Mostly Cloudy,0,2012-12-05 11:55:00
7:15 AM,56.1,54.3,94,30.09,10.0,Calm,Calm,-,N/A,,Mostly Cloudy,0,2012-12-05 12:15:00
7:35 AM,57.7,55.8,93,30.11,10.0,NW,4.6,-,N/A,,Overcast,310,2012-12-05 12:35:00
7:55 AM,58.1,55.4,91,30.12,10.0,Calm,Calm,-,N/A,,Overcast,0,2012-12-05 12:55:00
9:35 AM,59.4,42.4,54,30.17,10.0,NNW,8.1,19.6,N/A,,Overcast,330,2012-12-05 14:35:00
9:55 AM,57.0,43.5,61,30.19,10.0,NNW,6.9,-,N/A,,Overcast,340,2012-12-05 14:55:00
10:15 AM,55.0,45.5,70,30.19,10.0,North,3.5,-,N/A,,Overcast,360,2012-12-05 15:15:00
10:35 AM,54.9,46.2,73,30.19,10.0,NNW,3.5,-,N/A,,Overcast,340,2012-12-05 15:35:00
10:55 AM,54.9,46.4,73,30.19,10.0,NW,3.5,-,N/A,,Overcast,320,2012-12-05 15:55:00
11:15 AM,54.9,47.7,77,30.18,10.0,Calm,Calm,-,N/A,,Overcast,0,2012-12-05 16:15:00
11:35 AM,55.0,47.8,77,30.18,10.0,Calm,Calm,-,N/A,,Overcast,0,2012-12-05 16:35:00
11:55 AM,54.5,48.0,79,30.18,10.0,Calm,Calm,-,0.01,,Overcast,0,2012-12-05 16:55:00
12:15 PM,54.5,47.8,78,30.17,10.0,Calm,Calm,-,N/A,,Overcast,0,2012-12-05 17:15:00
12:35 PM,54.5,47.3,77,30.16,10.0,Calm,Calm,-,N/A,,Overcast,0,2012-12-05 17:35:00
12:55 PM,55.0,47.7,76,30.16,10.0,WSW,4.6,-,N/A,,Mostly Cloudy,240,2012-12-05 17:55:00
1:15 PM,54.9,48.4,79,30.15,10.0,WSW,3.5,-,N/A,,Overcast,240,2012-12-05 18:15:00
1:35 PM,55.4,48.6,78,30.15,5.0,West,4.6,-,N/A,,Mostly Cloudy,260,2012-12-05 18:35:00
1:55 PM,55.4,48.7,78,30.15,10.0,West,5.8,-,N/A,,Scattered Clouds,260,2012-12-05 18:55:00
2:15 PM,55.4,48.2,77,30.15,10.0,West,4.6,-,N/A,,Scattered Clouds,260,2012-12-05 19:15:00
2:35 PM,55.8,48.6,77,30.14,10.0,West,3.5,-,N/A,,Overcast,270,2012-12-05 19:35:00
2:55 PM,55.8,48.7,77,30.14,10.0,West,3.5,-,N/A,,Scattered Clouds,260,2012-12-05 19:55:00
3:15 PM,57.0,48.4,73,30.15,10.0,WSW,3.5,-,N/A,,Clear,250,2012-12-05 20:15:00
3:35 PM,57.2,47.8,71,30.15,10.0,WSW,3.5,-,N/A,,Clear,240,2012-12-05 20:35:00
3:55 PM,57.4,45.5,65,30.15,10.0,Calm,Calm,-,N/A,,Clear,0,2012-12-05 20:55:00
4:15 PM,57.4,39.2,51,30.16,10.0,Calm,Calm,-,N/A,,Clear,0,2012-12-05 21:15:00
4:35 PM,55.6,40.8,58,30.16,10.0,Calm,Calm,-,N/A,,Clear,0,2012-12-05 21:35:00
4:55 PM,51.4,41.9,70,30.16,10.0,Calm,Calm,-,N/A,,Clear,0,2012-12-05 21:55:00
5:15 PM,47.3,43.2,86,30.17,10.0,Calm,Calm,-,N/A,,Clear,0,2012-12-05 22:15:00
5:35 PM,46.4,43.0,88,30.18,10.0,Calm,Calm,-,N/A,,Clear,0,2012-12-05 22:35:00
5:55 PM,43.9,41.2,90,30.18,10.0,Calm,Calm,-,N/A,,Clear,0,2012-12-05 22:55:00
6:15 PM,41.4,40.3,96,30.19,10.0,Calm,Calm,-,N/A,,Clear,0,2012-12-05 23:15:00
6:35 PM,40.3,39.9,99,30.19,10.0,Calm,Calm,-,N/A,,Clear,0,2012-12-05 23:35:00
6:55 PM,38.8,37.9,97,30.20,10.0,Calm,Calm,-,N/A,,Clear,0,2012-12-05 23:55:00
7:15 PM,39.0,38.3,97,30.21,10.0,Calm,Calm,-,N/A,,Clear,0,2012-12-06 00:15:00
7:35 PM,37.4,36.9,98,30.22,10.0,East,3.5,-,N/A,,Clear,80,2012-12-06 00:35:00
7:55 PM,41.0,41.0,100,30.24,10.0,North,3.5,-,N/A,,Clear,350,2012-12-06 00:55:00
8:15 PM,42.3,38.3,86,30.24,10.0,Calm,Calm,-,N/A,,Clear,0,2012-12-06 01:15:00
8:35 PM,42.4,37.6,83,30.24,10.0,Calm,Calm,-,N/A,,Clear,0,2012-12-06 01:35:00
8:55 PM,42.1,36.5,81,30.25,10.0,Calm,Calm,-,N/A,,Clear,0,2012-12-06 01:55:00
9:15 PM,44.1,36.3,74,30.25,10.0,Calm,Calm,-,N/A,,Clear,0,2012-12-06 02:15:00
9:35 PM,46.2,34.9,65,30.25,10.0,North,4.6,-,N/A,,Clear,360,2012-12-06 02:35:00
9:55 PM,46.4,34.3,63,30.26,10.0,North,4.6,-,N/A,,Clear,360,2012-12-06 02:55:00
10:15 PM,46.4,34.0,62,30.26,10.0,North,5.8,-,N/A,,Clear,360,2012-12-06 03:15:00
10:35 PM,46.0,33.3,61,30.26,10.0,North,6.9,-,N/A,,Clear,350,2012-12-06 03:35:00
10:55 PM,45.3,32.9,62,30.28,10.0,North,3.5,-,N/A,,Clear,360,2012-12-06 03:55:00
11:15 PM,44.1,32.5,64,30.28,10.0,NNE,4.6,-,N/A,,Clear,20,2012-12-06 04:15:00
11:35 PM,44.1,32.2,63,30.29,10.0,North,4.6,-,N/A,,Clear,10,2012-12-06 04:35:00
11:55 PM,43.2,32.0,65,30.28,10.0,Calm,Calm,-,N/A,,Clear,0,2012-12-06 04:55:00